Location: Erdweis
(48.5167°N, 15.3500°E)
Time: 16:54:20
(UTC+00:00)

Cosmos 1464 Rocket - Pass Details

Date: 18 September 2020
Orbit: 953 x 1000 km, 82.9° (Epoch: 29 October)

Event Time Altitude Azimuth Distance (km) Brightness Sun altitude
Rises 17:57:42 0° 168° (SSE) 3,616 6.7 -9.6°
Reaches altitude 10° 18:00:15 10° 162° (SSE) 2,676 6.0 -10.0°
Maximum altitude 18:06:04 48° 90° (E) 1,235 4.2 -10.9°
Drops below altitude 10° 18:11:57 10° 19° (NNE) 2,709 6.3 -11.9°
Sets 18:14:33 0° 14° (NNE) 3,666 7.1 -12.3°
